Precipitable_Water
0.65 0.54 0.45 0.49 0.51 0.48 0.45 0.41 0.37 0.41 0.44 0.47 0.48 0.47 0.49 0.49 0.47 0.45 0.43 0.44 0.52 0.59 0.73 0.78 0.83 0.88 0.98 1.22 1.31 1.32 1.32 1.41 1.45 1.42 1.38 1.41 1.36 1.41 1.40 1.46 1.52 1.51 1.51 1.52
0.53 0.40 0.53 0.57 0.54 0.51 0.48 0.43 0.41 0.42 0.43 0.44 0.43 0.46 0.52 0.50 0.47 0.47 0.45 0.46 0.53 0.59 0.67 0.73 0.76 0.82 0.86 0.99 1.16 1.32 1.35 1.37 1.40 1.38 1.39 1.44 1.39 1.35 1.38 1.41 1.51 1.53 1.54 1.54
0.43 0.43 0.55 0.53 0.47 0.44 0.45 0.41 0.42 0.41 0.40 0.43 0.43 0.40 0.47 0.51 0.49 0.48 0.49 0.52 0.58 0.57 0.61 0.68 0.72 0.76 0.84 0.90 1.00 1.14 1.23 1.30 1.37 1.36 1.35 1.36 1.36 1.28 1.21 1.25 1.28 1.36 1.44 1.47
0.51 0.54 0.49 0.47 0.41 0.44 0.36 0.47 0.48 0.43 0.40 0.30 0.38 0.29 0.37 0.48 0.49 0.48 0.49 0.51 0.58 0.62 0.68 0.68 0.69 0.73 0.80 0.85 0.90 0.92 1.02 1.17 1.32 1.36 1.29 1.21 1.11 1.00 1.02 1.09 1.19 1.21 1.25 1.14
0.44 0.49 0.48 0.43 0.41 0.45 0.35 0.47 0.45 0.45 0.40 0.38 0.34 0.34 0.38 0.42 0.44 0.48 0.49 0.51 0.57 0.62 0.65 0.69 0.68 0.71 0.77 0.79 0.84 0.90 0.97 1.06 1.18 1.21 1.13 1.05 1.03 0.95 0.93 1.02 0.96 0.88 0.87 0.97
0.54 0.62 0.53 0.42 0.47 0.49 0.48 0.42 0.42 0.43 0.43 0.29 0.36 0.36 0.32 0.39 0.40 0.45 0.52 0.53 0.58 0.64 0.69 0.73 0.76 0.74 0.72 0.79 0.83 0.86 0.92 0.97 1.02 1.02 0.99 0.94 0.92 0.80 0.69 0.64 0.62 0.66 0.71 0.76
0.57 0.53 0.58 0.57 0.46 0.49 0.47 0.39 0.30 0.30 0.32 0.24 0.40 0.36 0.34 0.44 0.47 0.47 0.48 0.54 0.59 0.66 0.72 0.74 0.73 0.73 0.74 0.76 0.80 0.80 0.78 0.83 0.86 0.89 0.89 0.78 0.59 0.54 0.52 0.53 0.56 0.59 0.62 0.67
0.44 0.38 0.49 0.55 0.52 0.44 0.44 0.42 0.31 0.24 0.27 0.31 0.44 0.31 0.38 0.50 0.52 0.54 0.56 0.57 0.61 0.66 0.73 0.76 0.78 0.79 0.77 0.78 0.77 0.77 0.72 0.70 0.70 0.71 0.64 0.59 0.57 0.56 0.55 0.56 0.57 0.58 0.59 0.63
0.41 0.39 0.53 0.58 0.58 0.56 0.43 0.39 0.40 0.36 0.39 0.35 0.36 0.39 0.47 0.50 0.51 0.54 0.57 0.60 0.60 0.64 0.69 0.74 0.79 0.80 0.79 0.78 0.76 0.74 0.69 0.64 0.65 0.62 0.60 0.59 0.60 0.58 0.57 0.59 0.60 0.59 0.64 0.68
0.49 0.37 0.48 0.52 0.60 0.55 0.49 0.50 0.38 0.40 0.28 0.25 0.30 0.33 0.34 0.42 0.44 0.51 0.54 0.56 0.59 0.67 0.69 0.73 0.78 0.78 0.77 0.75 0.73 0.71 0.69 0.63 0.63 0.63 0.62 0.61 0.61 0.62 0.61 0.61 0.60 0.63 0.65 0.68
0.57 0.51 0.45 0.53 0.47 0.46 0.49 0.45 0.45 0.42 0.38 0.28 0.26 0.28 0.44 0.44 0.50 0.53 0.56 0.60 0.64 0.66 0.69 0.74 0.74 0.74 0.75 0.76 0.76 0.76 0.68 0.64 0.63 0.63 0.62 0.62 0.62 0.63 0.64 0.65 0.67 0.69 0.70 0.69
0.56 0.53 0.43 0.47 0.58 0.58 0.57 0.48 0.45 0.36 0.31 0.37 0.37 0.28 0.50 0.50 0.52 0.55 0.57 0.61 0.66 0.67 0.73 0.74 0.72 0.72 0.73 0.75 0.76 0.73 0.69 0.64 0.63 0.64 0.65 0.65 0.67 0.68 0.68 0.69 0.72 0.73 0.66 0.64
0.57 0.51 0.42 0.47 0.55 0.63 0.53 0.53 0.50 0.46 0.45 0.34 0.35 0.26 0.54 0.56 0.56 0.58 0.58 0.61 0.62 0.66 0.68 0.68 0.67 0.68 0.69 0.70 0.70 0.67 0.66 0.65 0.66 0.66 0.67 0.67 0.67 0.66 0.67 0.69 0.70 0.67 0.64 0.61
0.59 0.53 0.47 0.37 0.36 0.47 0.50 0.52 0.50 0.49 0.42 0.38 0.38 0.40 0.49 0.53 0.55 0.60 0.63 0.62 0.61 0.63 0.64 0.65 0.67 0.68 0.69 0.69 0.67 0.68 0.68 0.67 0.67 0.68 0.68 0.65 0.65 0.66 0.66 0.66 0.63 0.60 0.59 0.57
0.64 0.47 0.53 0.48 0.52 0.52 0.48 0.49 0.50 0.46 0.40 0.43 0.36 0.45 0.51 0.55 0.57 0.60 0.63 0.63 0.63 0.62 0.65 0.69 0.70 0.69 0.69 0.67 0.65 0.65 0.64 0.65 0.67 0.66 0.64 0.64 0.66 0.66 0.64 0.59 0.56 0.55 0.53 0.51
0.59 0.47 0.53 0.46 0.51 0.52 0.48 0.49 0.51 0.49 0.46 0.48 0.50 0.46 0.59 0.63 0.65 0.62 0.61 0.60 0.60 0.61 0.65 0.67 0.66 0.65 0.65 0.63 0.62 0.62 0.63 0.65 0.66 0.62 0.61 0.63 0.63 0.59 0.51 0.48 0.48 0.47 0.46 0.46
0.56 0.52 0.48 0.38 0.45 0.48 0.45 0.48 0.45 0.47 0.55 0.48 0.45 0.41 0.61 0.62 0.61 0.63 0.62 0.62 0.63 0.64 0.66 0.65 0.64 0.66 0.65 0.63 0.62 0.62 0.63 0.64 0.61 0.60 0.61 0.60 0.52 0.44 0.44 0.45 0.43 0.42 0.42 0.43
0.49 0.53 0.51 0.40 0.43 0.32 0.51 0.49 0.52 0.49 0.48 0.53 0.51 0.56 0.61 0.60 0.62 0.64 0.65 0.65 0.65 0.67 0.65 0.64 0.63 0.63 0.63 0.61 0.62 0.63 0.64 0.62 0.60 0.57 0.53 0.46 0.42 0.41 0.40 0.43 0.42 0.43 0.45 0.45
0.52 0.49 0.46 0.39 0.39 0.45 0.50 0.48 0.47 0.44 0.38 0.53 0.53 0.58 0.59 0.65 0.68 0.63 0.69 0.70 0.68 0.65 0.66 0.65 0.64 0.63 0.62 0.60 0.61 0.61 0.59 0.57 0.55 0.50 0.45 0.41 0.43 0.41 0.40 0.39 0.42 0.46 0.47 0.47
0.56 0.56 0.45 0.44 0.36 0.31 0.41 0.40 0.50 0.57 0.40 0.54 0.53 0.56 0.59 0.65 0.51 0.52 0.69 0.70 0.68 0.67 0.64 0.61 0.60 0.60 0.59 0.59 0.59 0.57 0.55 0.55 0.51 0.47 0.45 0.44 0.42 0.40 0.40 0.41 0.42 0.45 0.46 0.47
0.43 0.47 0.41 0.43 0.40 0.45 0.46 0.50 0.59 0.42 0.33 0.49 0.54 0.53 0.60 0.55 0.52 0.60 0.67 0.64 0.65 0.63 0.61 0.60 0.59 0.58 0.58 0.59 0.57 0.54 0.53 0.50 0.47 0.47 0.46 0.46 0.40 0.38 0.41 0.40 0.41 0.44 0.46 0.47
0.34 0.39 0.40 0.42 0.39 0.35 0.53 0.54 0.41 0.42 0.46 0.46 0.51 0.53 0.56 0.59 0.62 0.64 0.64 0.63 0.59 0.56 0.55 0.56 0.56 0.55 0.56 0.56 0.53 0.49 0.47 0.47 0.46 0.46 0.45 0.43 0.40 0.40 0.39 0.38 0.40 0.43 0.44 0.43
0.35 0.41 0.43 0.44 0.38 0.51 0.52 0.50 0.54 0.55 0.50 0.48 0.50 0.54 0.57 0.56 0.56 0.55 0.55 0.56 0.55 0.55 0.54 0.55 0.54 0.53 0.51 0.51 0.49 0.45 0.44 0.45 0.47 0.44 0.42 0.42 0.41 0.39 0.37 0.35 0.37 0.38 0.40 0.42
0.32 0.49 0.47 0.50 0.57 0.55 0.51 0.51 0.53 0.51 0.53 0.53 0.53 0.55 0.58 0.53 0.54 0.54 0.55 0.55 0.55 0.55 0.53 0.52 0.50 0.48 0.47 0.48 0.46 0.44 0.43 0.46 0.45 0.41 0.41 0.42 0.39 0.38 0.38 0.36 0.35 0.35 0.37 0.39
0.44 0.50 0.44 0.43 0.56 0.57 0.51 0.49 0.51 0.50 0.50 0.51 0.52 0.53 0.55 0.56 0.54 0.55 0.53 0.52 0.52 0.51 0.50 0.50 0.48 0.48 0.46 0.45 0.43 0.44 0.44 0.44 0.41 0.41 0.40 0.40 0.39 0.38 0.36 0.37 0.35 0.35 0.38 0.40
0.41 0.39 0.45 0.35 0.45 0.48 0.44 0.50 0.53 0.52 0.52 0.52 0.51 0.52 0.53 0.51 0.50 0.52 0.50 0.51 0.50 0.48 0.48 0.47 0.46 0.44 0.44 0.43 0.43 0.42 0.42 0.41 0.40 0.39 0.39 0.37 0.36 0.37 0.35 0.35 0.36 0.40 0.40 0.41
Wind_Speed
33 31 36 35 34 32 30 24 25 22 22 20 22 24 25 25 25 26 27 28 28 27 24 22 21 20 19 20 22 23 22 22 21 21 20 20 20 21 21 21 20 21 22 22
36 44 36 33 32 32 32 32 29 29 29 24 26 28 25 24 26 25 25 23 27 26 24 22 21 22 22 22 24 23 23 23 23 23 22 22 22 22 23 23 24 24 24 24
44 39 37 36 36 34 35 34 30 30 29 30 25 29 25 24 23 25 24 25 28 29 26 23 21 20 21 20 20 22 22 23 23 23 22 22 22 22 22 23 24 25 26 27
41 43 39 39 40 36 37 33 31 31 28 28 22 27 27 26 26 26 26 26 28 27 27 26 24 22 21 20 18 20 21 23 23 22 22 21 21 20 19 20 20 20 21 22
38 34 42 43 41 37 35 30 31 31 31 31 36 28 27 30 31 29 28 26 30 30 30 29 27 25 23 23 20 19 19 20 21 21 20 19 19 19 19 18 19 20 21 23
44 33 39 47 42 40 33 28 30 31 31 35 30 31 34 32 29 30 30 28 30 31 31 30 28 28 26 23 22 21 20 19 20 21 21 20 19 20 20 20 21 21 22 24
39 46 42 32 37 39 36 30 25 24 26 33 23 27 32 19 30 34 30 29 30 30 29 30 31 29 27 26 24 22 22 21 22 21 21 20 20 20 21 21 22 23 25 27
41 36 49 41 41 34 37 34 27 26 29 28 28 30 24 26 31 24 29 30 32 31 30 29 30 29 28 27 25 23 23 22 21 21 21 21 21 22 23 24 25 26 28 29
35 43 33 43 40 39 37 40 39 26 25 22 26 27 29 29 26 28 28 25 27 29 31 31 30 29 28 27 25 23 22 22 22 22 22 22 23 23 24 25 26 28 29 31
38 31 35 35 38 44 40 33 32 36 32 34 28 28 25 22 27 27 28 28 29 28 30 31 31 30 28 27 25 24 23 22 23 23 23 23 23 24 25 26 28 29 31 32
49 38 27 33 41 45 40 42 34 35 33 34 31 31 27 30 25 23 22 25 28 26 27 29 29 28 27 26 25 24 24 23 23 22 23 23 24 26 27 28 30 31 32 33
51 38 40 35 27 38 45 45 42 32 36 34 31 40 23 20 24 23 22 23 25 26 28 29 28 27 27 25 24 24 24 23 23 24 24 24 26 27 29 30 31 31 32 31
46 41 34 36 35 30 32 43 46 37 29 43 31 38 29 20 18 22 21 22 22 25 27 28 27 26 26 25 24 24 24 24 24 24 24 25 26 28 29 30 30 30 30 31
47 46 48 40 45 36 33 35 38 41 36 39 44 30 27 28 26 24 23 23 25 27 28 28 28 27 27 26 25 24 24 25 24 24 25 25 27 28 28 29 30 30 31 33
45 48 50 55 41 33 38 42 37 39 46 38 43 40 34 31 29 29 28 26 28 29 30 30 29 28 27 26 25 25 24 24 24 24 25 26 27 27 29 30 30 31 33 34
54 44 50 52 53 47 35 40 40 44 43 40 36 37 33 29 29 29 31 31 33 33 32 31 30 29 28 27 26 24 24 24 23 24 24 25 27 28 29 30 31 32 33 34
50 49 46 55 55 50 49 45 45 44 40 44 41 44 32 35 34 34 33 34 35 34 33 32 31 30 28 27 26 24 23 22 22 23 25 26 28 29 30 30 31 32 33 34
35 46 47 46 48 50 41 54 51 48 45 44 46 40 38 37 36 34 35 35 35 34 33 32 30 28 27 27 25 24 23 23 23 24 25 27 28 29 30 31 31 31 31 32
42 42 39 40 46 33 39 44 47 47 50 45 41 40 41 38 35 37 38 37 36 35 34 32 30 28 26 27 26 24 23 23 23 25 25 26 27 29 29 28 29 30 30 31
45 44 41 42 39 41 37 45 42 36 40 40 39 37 34 30 34 35 37 37 36 35 32 29 28 27 25 26 26 25 25 24 25 25 26 27 28 28 28 28 29 29 30 30
31 36 39 31 35 31 34 33 34 36 38 40 41 38 37 37 36 27 30 33 33 31 31 30 29 28 26 25 25 25 25 26 26 25 26 26 26 26 27 28 29 29 30 29
40 29 29 34 29 30 33 31 38 40 31 29 37 36 38 38 30 29 30 32 31 31 31 31 28 27 26 26 25 25 26 26 25 25 26 27 27 27 28 28 29 29 29 30
36 38 29 37 38 35 35 35 34 31 30 34 28 28 32 33 32 31 29 30 30 31 31 30 28 26 25 26 26 26 26 26 25 25 26 26 27 27 28 28 29 29 29 30
47 41 31 27 34 38 32 28 32 32 33 32 28 27 29 29 29 29 28 28 28 29 29 27 27 26 26 26 26 27 26 26 26 26 26 26 26 27 27 28 28 28 29 29
33 35 42 33 29 31 30 31 33 30 30 30 28 27 28 28 28 29 28 28 28 28 27 26 26 25 25 26 26 26 27 27 27 26 26 26 27 27 26 26 27 28 28 28
37 31 33 35 32 29 28 29 32 31 30 32 29 27 27 28 27 28 27 27 27 25 25 25 24 24 24 24 24 25 27 27 26 26 27 27 27 26 26 25 26 27 27 26
Wind_Direction
240 241 238 238 240 245 247 251 253 255 255 259 261 259 256 254 244 242 243 239 226 224 229 232 238 237 236 233 231 233 235 237 238 244 250 254 258 258 257 257 259 259 259 259
240 240 238 242 242 243 244 249 254 260 261 260 263 259 258 258 242 238 235 228 220 224 227 233 236 238 240 240 239 239 240 241 243 249 253 257 259 261 260 260 261 262 264 265
236 242 240 239 239 241 243 245 253 254 262 260 260 259 254 252 242 238 238 229 224 224 228 228 230 236 234 238 237 238 241 243 245 250 254 257 259 262 262 262 263 265 265 267
244 239 238 236 238 236 244 242 251 256 256 254 246 261 251 247 247 239 237 231 230 231 231 230 227 233 234 236 235 239 243 244 247 250 253 255 259 259 263 262 263 265 266 268
236 233 231 238 236 235 248 243 248 254 256 259 251 258 254 241 243 241 240 236 233 234 234 232 229 227 233 234 237 240 242 244 245 247 250 253 252 256 261 263 264 267 270 271
239 242 233 238 238 236 239 245 245 250 251 252 247 247 251 243 242 244 242 240 236 239 237 234 231 226 229 233 236 240 243 244 245 245 248 251 253 256 260 263 266 270 272 274
236 238 240 240 236 235 229 232 241 244 239 249 242 246 246 248 240 240 242 240 239 236 236 232 230 229 228 231 235 240 247 248 245 245 246 249 252 257 261 265 268 272 274 276
232 238 232 232 235 231 227 222 233 236 241 253 249 248 246 245 245 243 241 242 238 236 235 230 229 228 227 232 237 242 244 244 243 244 246 249 254 260 265 268 271 275 277 279
234 240 242 230 233 228 228 227 232 247 247 252 246 253 254 248 249 242 242 238 233 234 232 227 226 226 226 230 235 237 240 242 241 246 248 252 257 262 267 270 274 277 279 279
237 245 239 234 228 231 230 229 224 233 236 243 247 249 248 248 242 242 243 239 236 234 229 225 223 223 226 229 233 236 240 240 244 246 250 255 261 266 270 273 276 280 281 281
232 239 245 229 227 226 225 228 229 230 234 239 251 252 246 245 246 244 241 234 226 226 221 215 219 221 223 227 231 236 241 243 243 245 252 258 264 269 272 275 278 281 283 283
224 236 239 236 231 231 228 225 223 228 230 240 246 251 254 245 240 239 235 227 228 223 213 213 218 221 223 228 233 239 240 240 245 252 256 261 267 272 275 278 280 282 283 283
223 229 234 234 237 236 228 224 226 230 233 237 236 248 236 241 239 229 224 227 223 216 213 214 216 221 225 231 235 238 240 244 250 254 260 266 270 274 278 280 282 282 283 284
221 226 226 227 229 228 228 225 224 224 231 238 237 243 243 236 234 237 233 227 219 214 213 217 222 226 230 234 236 240 243 247 251 257 263 267 273 277 280 281 282 283 284 285
224 227 227 231 232 226 229 228 226 224 232 228 241 239 239 237 235 235 229 221 217 215 218 222 224 229 232 235 239 243 246 249 254 260 266 271 275 278 281 283 284 285 287 287
225 232 224 227 230 233 235 231 227 230 231 237 238 243 236 236 233 229 225 225 223 223 223 224 228 230 234 236 238 242 246 252 257 262 268 273 277 279 282 284 286 288 288 289
226 225 224 230 230 233 235 231 227 231 230 233 234 240 232 234 233 231 228 226 224 224 224 228 231 233 235 235 234 241 246 251 257 265 271 276 280 282 285 286 287 288 289 290
231 226 227 231 228 231 232 234 233 233 234 234 240 235 232 233 230 228 226 224 224 225 228 228 230 231 230 231 234 240 246 253 261 269 275 279 281 285 287 287 288 290 292 293
235 229 230 224 220 232 229 231 226 229 237 233 234 230 230 229 229 233 228 227 227 228 227 227 227 226 228 229 232 240 248 255 265 272 276 280 284 287 288 287 288 290 291 293
226 223 225 214 220 226 226 228 229 229 236 226 225 224 221 217 228 234 225 227 224 224 221 220 220 223 226 231 235 244 252 258 268 271 276 281 287 286 286 286 288 290 292 293
225 222 223 222 214 229 225 222 215 218 232 227 219 221 217 221 224 224 217 216 219 218 219 218 221 226 231 235 240 249 255 263 267 270 275 282 285 286 287 287 288 289 290 292
227 231 227 221 224 222 227 216 212 225 227 215 216 221 216 220 222 220 217 215 215 216 216 218 223 228 234 236 244 252 258 264 267 270 275 281 284 287 289 288 289 288 288 290
229 227 235 234 232 235 215 217 224 222 222 214 224 218 213 217 219 216 215 215 215 212 215 221 226 231 237 241 249 257 262 262 266 272 274 278 283 287 289 287 287 288 288 290
234 229 233 241 231 227 224 228 225 226 223 223 227 226 220 217 212 214 215 217 213 215 218 223 227 233 241 248 255 259 261 261 266 270 271 276 282 286 288 288 287 288 289 290
223 226 227 234 238 223 228 228 224 225 220 217 218 217 215 208 213 214 216 215 214 217 222 226 232 239 246 252 256 259 259 261 265 266 270 275 281 283 285 287 289 290 289 290
223 226 225 227 227 226 230 228 222 219 218 215 213 212 210 208 209 205 205 209 211 215 220 226 234 241 249 255 258 260 260 260 261 266 269 274 278 279 282 288 291 292 292 290